SCP
0 -0 0 0 0 0 -0 -0 -0 -0 0 -0 0 0 0 -0 -0 -0 -0 -0 -0 -0 0 0 0 0 0 0 0 0 0 0 0 0 0 0 0 -0 -0 0 0 0 0 0
0 0 0 0 0 0 0 0 0 0 0 0 0 0 0 -0 -0 -0 -0 -0 -0 -0 -0 0 0 0 0 0 0 0 0 0 0 0 0 0 0 -0 -0 0 0 0 0 0
0 0 0 0 -0 -0 0 0 0 0 0 0 0 0 0 0 -0 -0 -0 -0 -0 -0 -0 0 0 0 0 0 0 0 0 0 0 0 0 0 0 0 -0 0 0 0 0 0
0 -0 -0 0 -0 -0 0 0 0 0 0 0 0 0 0 0 0 -0 -0 -0 -0 -0 -0 0 0 0 0 0 0 0 0 0 0 0 0 0 0 0 0 0 0 0 0 0
0 -0 -0 -0 -0 -0 0 0 0 0 0 0 0 0 0 0 0 0 0 -0 -0 -0 0 0 0 0 0 0 0 0 0 0 0 0 0 0 -0 -0 0 0 0 0 0 0
0 0 -0 -0 -0 -0 0 0 0 0 0 0 0 0 0 0 0 -0 -0 -0 -0 -0 -0 -0 -0 -0 0 0 0 0 0 0 0 0 0 0 0 -0 0 0 0 0 0 0
0 -0 -0 0 -0 -0 -0 -0 0 0 0 0 0 0 0 0 0 0 -0 -0 0 -0 0 0 0 0 0 0 0 0 0 0 0 0 0 0 -0 0 -0 0 -0 -0 0 0
0 0 0 -0 -0 -0 0 -0 -0 -0 0 0 0 0 0 0 0 -0 0 -0 -0 -0 0 0 0 0 0 0 0 0 0 0 0 0 0 0 0 0 0 0 -0 -0 -0 -0
0 0 0 -0 -0 0 -0 -0 -0 -0 -0 -0 0 -0 0 0 0 0 -0 -0 -0 0 0 0 0 0 0 0 0 0 0 0 0 0 0 0 0 0 0 0 0 0 0 0
0 0 0 0 0 -0 -0 0 -0 -0 0 0 0 -0 -0 0 0 0 0 0 0 0 0 0 0 0 0 0 0 0 0 0 0 -0 -0 -0 -0 0 0 0 0 -0 0 0
0 0 0 0 0 0 -0 0 0 0 0 0 0 0 0 -0 0 0 0 0 0 0 0 0 0 0 0 0 0 0 0 0 0 0 0 0 -0 -0 0 0 0 -0 -0 0
0 0 0 0 0 0 0 0 0 0 0 0 0 0 0 0 -0 0 0 -0 0 0 0 0 0 0 0 0 0 0 0 0 0 0 0 -0 0 -0 0 0 0 -0 -0 -0
0 0 0 0 0 0 0 0 0 0 0 0 0 0 0 0 0 0 -0 -0 -0 -0 -0 0 0 0 0 0 0 0 0 0 0 0 0 0 0 0 0 0 0 -0 -0 -0
0 0 0 0 0 0 0 0 0 0 0 0 0 0 0 0 0 0 0 0 0 0 0 0 0 0 0 0 0 0 0 0 0 0 0 0 0 0 0 0 0 0 -0 -0
0 0 0 0 0 0 0 0 0 0 0 0 0 0 0 0 0 0 0 0 0 0 0 0 0 -0 0 0 0 -0 -0 -0 0 0 0 0 0 0 0 0 0 0 0 0
0 0 0 0 0 0 0 0 0 0 0 0 0 0 0 0 0 0 0 0 0 0 0 0 0 0 -0 0 -0 -0 -0 -0 -0 0 0 0 0 -0 0 0 0 0 0 0
0 0 0 0 0 0 0 0 0 0 0 0 0 0 0 0 0 0 0 0 0 0 0 0 0 0 0 0 -0 -0 -0 -0 -0 -0 -0 -0 -0 -0 -0 0 0 0 0 0
0 0 0 0 0 0 0 0 0 0 0 0 0 0 0 0 0 0 0 0 0 0 0 0 0 0 0 0 -0 0 -0 -0 -0 -0 -0 -0 -0 -0 -0 0 0 0 0 0
0 0 0 0 0 0 0 0 0 0 0 0 0 0 0 0 0 0 0 0 0 0 0 0 0 0 -0 0 0 -0 -0 -0 -0 -0 -0 -0 -0 -0 0 0 0 0 0 0
0 0 0 0 0 0 0 0 0 0 0 0 0 0 0 0 0 0 0 0 0 0 0 0 0 0 0 -0 0 0 -0 -0 -0 -0 -0 0 0 0 0 0 0 0 0 0
0 0 0 0 0 0 0 0 0 0 0 0 0 0 0 0 0 0 0 0 0 0 0 0 0 0 0 -0 -0 0 0 0 0 0 0 0 0 0 0 0 0 0 0 0
0 0 0 0 0 0 0 0 0 0 0 0 0 0 0 0 0 0 0 0 0 0 0 0 0 0 0 0 0 0 -0 0 0 0 0 0 0 0 0 0 0 0 0 0
0 0 0 0 0 0 0 0 0 0 0 0 0 0 0 0 0 0 0 0 0 0 0 0 0 0 0 0 0 0 0 0 0 0 0 0 0 0 0 0 0 0 0 0
0 0 0 0 0 0 0 0 0 0 0 0 0 0 0 0 0 0 0 0 0 0 0 0 0 0 0 0 0 0 0 0 0 0 0 0 0 0 0 0 0 0 0 0
0 0 0 0 0 0 0 0 0 0 0 0 0 0 0 0 0 0 0 0 0 0 0 0 0 0 0 0 0 0 0 0 0 0 0 0 0 0 0 0 0 0 0 0
0 0 0 0 0 0 0 0 0 0 0 0 0 0 0 0 0 0 0 0 0 0 0 0 0 0 0 0 0 0 0 0 0 0 0 0 0 0 0 0 0 0 0 0
0 0 0 0 0 0 0 0 0 0 0 0 0 0 0 0 0 0 0 0 0 0 -0 0 0 0 0 0 0 0 0 0 0 0 0 0 0 0 0 0 0 0 0 0
Wind_Speed_500mb
43 47 59 42 59 52 17 15 6 14 17 7 6 7 4 2 6 4 4 4 6 6 6 2 2 5 7 8 20 12 7 8 11 18 10 14 6 22 18 11 14 7 3 9
51 51 55 36 44 14 10 10 9 6 18 6 7 9 9 5 1 8 3 4 3 3 4 5 3 2 1 9 11 17 14 11 12 9 6 23 12 38 31 7 5 35 10 8
35 47 56 48 23 5 7 4 3 3 8 7 4 8 8 7 8 9 4 3 3 2 4 4 5 7 3 10 9 16 10 9 16 11 10 14 19 36 39 24 8 16 23 27
20 24 21 17 4 13 2 1 4 4 4 6 8 1 4 7 3 2 5 3 3 7 5 7 7 6 4 6 11 8 6 6 9 8 13 19 33 31 35 30 22 14 12 22
21 8 13 9 24 21 3 2 8 3 7 8 12 4 8 7 4 5 2 1 4 6 5 8 11 12 11 7 10 5 4 3 4 3 6 7 33 35 30 27 25 31 30 23
28 15 6 11 25 21 10 11 18 3 8 11 9 6 8 9 4 2 3 3 3 5 7 9 9 10 6 5 10 10 7 9 9 1 9 7 5 24 17 15 28 13 18 18
11 14 21 16 14 33 30 12 2 8 7 11 5 8 9 10 3 3 3 1 4 3 2 8 7 6 6 8 5 5 12 12 8 8 13 5 2 9 9 18 22 24 22 26
10 10 22 15 12 16 28 37 14 9 4 9 7 13 11 11 4 2 3 3 1 4 7 6 10 5 7 6 4 6 6 8 7 8 8 6 7 4 6 8 12 19 22 24
10 13 15 16 21 19 14 27 31 12 4 11 6 18 19 9 8 7 2 1 7 1 3 4 5 4 6 4 3 4 5 5 5 6 5 3 10 7 6 7 3 16 21 23
7 8 7 8 11 16 15 13 30 23 12 3 11 7 14 10 7 2 6 8 7 6 4 5 5 2 4 5 6 4 4 2 3 3 4 1 7 3 2 7 6 9 15 20
15 11 10 6 5 3 10 16 18 26 11 12 18 9 2 8 13 8 11 8 9 9 7 5 3 5 1 6 3 4 4 4 3 2 4 3 6 4 5 11 13 7 10 15
20 20 13 5 7 6 6 13 11 19 10 14 21 25 21 23 14 8 17 4 1 7 9 5 5 7 4 5 3 4 5 4 5 5 5 5 7 6 11 9 10 7 5 4
24 20 15 19 17 14 11 14 10 9 13 16 12 13 22 23 22 21 10 11 6 5 7 8 4 9 3 6 7 5 10 10 6 4 14 13 13 11 10 9 9 6 1 2
24 23 22 24 25 23 15 15 12 8 1 7 4 19 20 21 22 24 24 11 10 10 5 8 6 7 5 4 6 7 5 19 13 13 7 11 21 21 18 13 9 8 5 3
23 20 20 22 29 28 17 15 14 10 13 2 14 23 27 22 20 21 22 19 9 6 6 8 6 4 5 5 6 16 24 19 12 6 19 18 10 34 24 20 16 11 8 5
20 13 11 9 20 19 16 8 17 21 19 5 5 10 9 18 16 15 17 17 13 6 7 8 7 5 6 6 7 16 29 27 31 7 16 16 17 30 25 20 16 11 6 6
20 14 12 13 17 20 16 7 9 4 21 7 4 5 2 9 9 7 7 12 6 7 8 9 7 6 9 6 10 10 29 32 27 20 29 20 28 19 26 20 15 14 11 8
20 20 16 27 24 23 29 29 10 0 14 8 4 3 5 17 9 8 10 4 7 9 8 5 8 6 11 12 31 20 24 31 30 32 23 12 26 23 24 21 16 12 9 11
16 18 16 29 28 17 19 24 22 14 18 7 10 8 4 13 8 4 8 7 6 6 8 9 10 10 17 21 27 37 42 39 34 36 28 24 26 25 23 21 17 13 10 13
21 25 12 11 13 21 13 11 12 15 17 17 10 13 8 19 16 11 7 7 5 6 9 11 9 15 49 46 32 28 45 41 46 46 35 32 29 28 24 19 15 16 15 17
30 19 15 8 22 24 13 11 13 17 11 22 22 36 14 27 10 8 14 5 5 6 6 8 8 10 13 47 69 42 48 49 48 41 37 36 30 29 24 21 17 16 17 20
37 16 24 23 14 12 10 11 11 14 14 24 22 20 16 23 18 10 12 6 4 12 17 6 9 10 23 21 48 52 53 52 46 42 38 35 30 27 24 21 18 16 18 22
42 17 18 17 17 17 16 21 10 9 15 24 21 10 17 14 13 9 8 13 13 8 9 10 11 1 16 28 46 52 55 54 49 44 40 36 33 29 23 18 16 16 18 20
27 19 17 16 14 15 14 13 9 15 19 44 43 16 11 11 10 5 10 8 6 9 11 13 8 30 36 38 50 63 61 61 57 51 44 38 32 26 19 16 15 15 15 16
19 19 16 20 20 12 10 18 14 14 35 54 26 11 8 5 10 9 5 8 14 13 11 8 7 29 51 57 63 66 71 65 57 50 45 37 29 22 18 15 14 13 13 13
22 22 11 4 18 13 8 19 12 27 48 34 11 9 8 11 9 12 21 9 13 8 8 13 16 39 54 64 67 68 68 61 54 48 41 33 26 21 17 15 12 12 11 10
18 14 32 22 8 22 20 28 27 46 43 8 7 15 16 8 8 11 12 11 7 8 15 17 26 44 58 66 69 69 66 61 53 46 38 32 27 23 19 14 10 8 6 6
Wind_Direction_500mb
69 133 138 136 142 142 133 69 76 124 47 39 43 80 27 15 107 81 96 13 34 10 79 340 286 292 252 327 317 323 10 296 296 339 349 309 275 358 5 352 356 35 5 46
75 103 140 136 154 135 20 64 71 93 27 77 95 111 112 55 87 42 30 45 6 9 23 303 324 236 190 300 318 343 340 326 314 326 184 12 1 17 11 8 285 27 33 15
91 117 127 137 158 266 48 126 95 344 34 69 17 130 122 123 39 73 37 83 269 290 17 49 335 358 357 308 322 321 283 360 31 31 340 318 5 19 32 22 23 40 38 29
33 123 111 122 14 274 345 116 108 147 166 165 121 326 146 161 160 32 359 151 322 347 322 317 2 15 7 241 334 325 311 12 36 36 51 30 36 31 30 28 20 40 47 38
15 95 175 335 346 343 272 187 145 130 108 148 159 154 187 212 161 289 88 41 355 327 47 11 331 350 31 24 315 357 344 348 312 122 12 41 45 30 27 26 16 35 36 42
1 336 306 323 4 31 32 58 131 172 159 162 199 135 162 198 218 109 46 9 129 60 41 14 20 34 21 355 353 329 344 316 327 78 322 243 15 16 18 46 36 360 28 17
39 353 310 302 2 29 20 6 11 266 137 190 195 166 162 192 206 325 133 311 283 32 318 290 269 268 300 314 29 355 332 322 319 310 301 72 74 53 84 64 38 26 27 26
38 23 354 333 299 340 10 6 349 318 130 180 167 178 157 151 158 153 191 48 27 153 313 304 317 214 232 201 306 349 358 312 331 328 26 130 153 62 13 3 49 25 22 19
358 24 41 27 346 311 315 355 356 338 285 209 165 168 179 172 187 164 155 42 168 259 317 292 288 330 355 314 291 218 284 241 302 339 312 355 70 81 355 319 93 22 23 21
307 302 335 17 15 326 305 310 347 340 306 224 151 203 193 176 176 180 144 170 208 223 248 257 273 318 329 296 298 347 289 288 299 356 318 57 93 58 305 264 68 27 31 32
286 296 298 316 11 108 311 322 306 334 309 289 216 211 209 180 194 187 130 162 207 204 246 269 248 273 98 272 268 283 288 294 233 234 253 243 160 159 301 105 119 73 30 33
279 268 246 283 291 262 237 300 305 331 300 282 253 231 223 204 195 168 177 358 185 242 251 249 298 240 216 307 259 195 257 260 339 254 30 106 152 110 129 134 140 136 123 89
276 277 253 245 257 274 246 254 268 320 324 302 261 253 233 223 219 206 198 204 219 258 258 317 314 263 267 244 233 255 219 198 240 293 174 197 184 171 163 159 145 128 99 356
266 267 264 257 252 256 251 240 234 217 295 286 254 261 245 233 223 219 217 218 231 239 238 268 269 268 194 274 334 258 351 156 218 244 216 193 213 205 194 181 167 165 177 207
267 271 290 257 219 231 236 229 236 226 178 253 306 295 253 243 236 231 233 226 205 209 228 231 242 287 246 215 284 239 194 197 190 220 182 195 199 195 188 190 194 189 189 201
264 258 253 204 199 211 210 246 246 218 204 147 288 267 268 233 231 230 233 222 215 228 248 256 246 259 255 266 252 250 210 220 212 199 173 183 164 174 184 188 190 191 202 238
257 227 225 232 214 209 198 213 166 254 191 175 265 256 279 205 200 214 226 225 242 229 253 237 257 220 215 259 246 237 201 201 194 169 147 148 167 182 185 186 192 212 214 241
249 225 215 232 224 217 229 228 268 201 182 212 200 205 260 189 205 209 194 221 239 240 263 253 228 190 219 252 238 217 194 186 189 185 192 179 175 166 181 194 208 221 233 259
228 226 208 214 207 214 229 243 240 226 217 251 196 189 173 173 185 204 176 187 238 231 247 228 196 206 223 230 228 207 192 185 184 175 184 174 174 177 191 204 220 224 237 269
198 210 188 232 221 205 227 234 183 202 215 224 237 174 151 166 173 197 192 210 239 242 225 173 227 252 244 243 234 216 196 187 175 164 174 176 176 187 199 208 215 232 252 271
193 201 200 198 177 170 199 212 203 195 220 205 200 189 147 174 156 177 214 206 209 248 185 215 244 257 233 229 217 206 195 188 191 194 192 189 195 193 198 207 221 235 258 279
190 196 157 154 198 215 207 207 207 209 218 178 168 179 154 156 161 157 191 217 189 242 147 225 256 251 220 199 187 186 181 181 175 183 182 185 190 193 194 200 220 248 274 287
195 201 172 182 193 221 213 199 211 215 161 168 165 143 145 145 167 152 166 205 224 141 210 230 234 202 201 179 174 170 172 174 175 173 179 182 183 185 195 214 241 264 278 286
187 187 208 200 191 227 205 213 178 196 177 158 153 130 145 150 146 142 203 210 179 230 229 236 235 208 191 176 172 166 165 175 174 175 176 178 180 188 204 225 248 262 270 280
196 195 219 209 216 208 211 195 165 165 166 149 144 104 135 164 148 187 169 208 238 222 232 222 227 196 183 175 175 174 175 174 176 176 176 178 184 196 206 224 235 249 268 287
210 219 224 147 197 187 192 186 159 165 158 156 163 146 186 203 176 169 211 214 220 242 224 248 210 188 184 180 178 181 178 176 175 174 175 180 187 194 205 214 232 255 271 286
224 193 217 216 238 203 199 193 188 171 162 201 162 195 196 113 192 218 194 208 225 252 272 247 211 189 186 180 177 175 174 173 175 176 178 183 187 188 192 202 225 236 248 272
Wind_Speed_850mb
43 47 59 42 59 52 17 15 6 14 17 7 6 7 4 2 6 4 4 4 6 6 6 2 2 5 7 8 20 12 7 8 11 18 10 14 6 22 18 11 14 7 3 9
51 51 55 36 44 14 10 10 9 6 18 6 7 9 9 5 1 8 3 4 3 3 4 5 3 2 1 9 11 17 14 11 12 9 6 23 12 38 31 7 5 35 10 8
35 47 56 48 23 5 7 4 3 3 8 7 4 8 8 7 8 9 4 3 3 2 4 4 5 7 3 10 9 16 10 9 16 11 10 14 19 36 39 24 8 16 23 27
20 24 21 17 4 13 2 1 4 4 4 6 8 1 4 7 3 2 5 3 3 7 5 7 7 6 4 6 11 8 6 6 9 8 13 19 33 31 35 30 22 14 12 22
21 8 13 9 24 21 3 2 8 3 7 8 12 4 8 7 4 5 2 1 4 6 5 8 11 12 11 7 10 5 4 3 4 3 6 7 33 35 30 27 25 31 30 23
28 15 6 11 25 21 10 11 18 3 8 11 9 6 8 9 4 2 3 3 3 5 7 9 9 10 6 5 10 10 7 9 9 1 9 7 5 24 17 15 28 13 18 18
11 14 21 16 14 33 30 12 2 8 7 11 5 8 9 10 3 3 3 1 4 3 2 8 7 6 6 8 5 5 12 12 8 8 13 5 2 9 9 18 22 24 22 26
10 10 22 15 12 16 28 37 14 9 4 9 7 13 11 11 4 2 3 3 1 4 7 6 10 5 7 6 4 6 6 8 7 8 8 6 7 4 6 8 12 19 22 24
10 13 15 16 21 19 14 27 31 12 4 11 6 18 19 9 8 7 2 1 7 1 3 4 5 4 6 4 3 4 5 5 5 6 5 3 10 7 6 7 3 16 21 23
7 8 7 8 11 16 15 13 30 23 12 3 11 7 14 10 7 2 6 8 7 6 4 5 5 2 4 5 6 4 4 2 3 3 4 1 7 3 2 7 6 9 15 20
15 11 10 6 5 3 10 16 18 26 11 12 18 9 2 8 13 8 11 8 9 9 7 5 3 5 1 6 3 4 4 4 3 2 4 3 6 4 5 11 13 7 10 15
20 20 13 5 7 6 6 13 11 19 10 14 21 25 21 23 14 8 17 4 1 7 9 5 5 7 4 5 3 4 5 4 5 5 5 5 7 6 11 9 10 7 5 4
24 20 15 19 17 14 11 14 10 9 13 16 12 13 22 23 22 21 10 11 6 5 7 8 4 9 3 6 7 5 10 10 6 4 14 13 13 11 10 9 9 6 1 2
24 23 22 24 25 23 15 15 12 8 1 7 4 19 20 21 22 24 24 11 10 10 5 8 6 7 5 4 6 7 5 19 13 13 7 11 21 21 18 13 9 8 5 3
23 20 20 22 29 28 17 15 14 10 13 2 14 23 27 22 20 21 22 19 9 6 6 8 6 4 5 5 6 16 24 19 12 6 19 18 10 34 24 20 16 11 8 5
20 13 11 9 20 19 16 8 17 21 19 5 5 10 9 18 16 15 17 17 13 6 7 8 7 5 6 6 7 16 29 27 31 7 16 16 17 30 25 20 16 11 6 6
20 14 12 13 17 20 16 7 9 4 21 7 4 5 2 9 9 7 7 12 6 7 8 9 7 6 9 6 10 10 29 32 27 20 29 20 28 19 26 20 15 14 11 8
20 20 16 27 24 23 29 29 10 0 14 8 4 3 5 17 9 8 10 4 7 9 8 5 8 6 11 12 31 20 24 31 30 32 23 12 26 23 24 21 16 12 9 11
16 18 16 29 28 17 19 24 22 14 18 7 10 8 4 13 8 4 8 7 6 6 8 9 10 10 17 21 27 37 42 39 34 36 28 24 26 25 23 21 17 13 10 13
21 25 12 11 13 21 13 11 12 15 17 17 10 13 8 19 16 11 7 7 5 6 9 11 9 15 49 46 32 28 45 41 46 46 35 32 29 28 24 19 15 16 15 17
30 19 15 8 22 24 13 11 13 17 11 22 22 36 14 27 10 8 14 5 5 6 6 8 8 10 13 47 69 42 48 49 48 41 37 36 30 29 24 21 17 16 17 20
37 16 24 23 14 12 10 11 11 14 14 24 22 20 16 23 18 10 12 6 4 12 17 6 9 10 23 21 48 52 53 52 46 42 38 35 30 27 24 21 18 16 18 22
42 17 18 17 17 17 16 21 10 9 15 24 21 10 17 14 13 9 8 13 13 8 9 10 11 1 16 28 46 52 55 54 49 44 40 36 33 29 23 18 16 16 18 20
27 19 17 16 14 15 14 13 9 15 19 44 43 16 11 11 10 5 10 8 6 9 11 13 8 30 36 38 50 63 61 61 57 51 44 38 32 26 19 16 15 15 15 16
19 19 16 20 20 12 10 18 14 14 35 54 26 11 8 5 10 9 5 8 14 13 11 8 7 29 51 57 63 66 71 65 57 50 45 37 29 22 18 15 14 13 13 13
22 22 11 4 18 13 8 19 12 27 48 34 11 9 8 11 9 12 21 9 13 8 8 13 16 39 54 64 67 68 68 61 54 48 41 33 26 21 17 15 12 12 11 10
18 14 32 22 8 22 20 28 27 46 43 8 7 15 16 8 8 11 12 11 7 8 15 17 26 44 58 66 69 69 66 61 53 46 38 32 27 23 19 14 10 8 6 6
Wind_Direction_850mb
69 133 138 136 142 142 133 69 76 124 47 39 43 80 27 15 107 81 96 13 34 10 79 340 286 292 252 327 317 323 10 296 296 339 349 309 275 358 5 352 356 35 5 46
75 103 140 136 154 135 20 64 71 93 27 77 95 111 112 55 87 42 30 45 6 9 23 303 324 236 190 300 318 343 340 326 314 326 184 12 1 17 11 8 285 27 33 15
91 117 127 137 158 266 48 126 95 344 34 69 17 130 122 123 39 73 37 83 269 290 17 49 335 358 357 308 322 321 283 360 31 31 340 318 5 19 32 22 23 40 38 29
33 123 111 122 14 274 345 116 108 147 166 165 121 326 146 161 160 32 359 151 322 347 322 317 2 15 7 241 334 325 311 12 36 36 51 30 36 31 30 28 20 40 47 38
15 95 175 335 346 343 272 187 145 130 108 148 159 154 187 212 161 289 88 41 355 327 47 11 331 350 31 24 315 357 344 348 312 122 12 41 45 30 27 26 16 35 36 42
1 336 306 323 4 31 32 58 131 172 159 162 199 135 162 198 218 109 46 9 129 60 41 14 20 34 21 355 353 329 344 316 327 78 322 243 15 16 18 46 36 360 28 17
39 353 310 302 2 29 20 6 11 266 137 190 195 166 162 192 206 325 133 311 283 32 318 290 269 268 300 314 29 355 332 322 319 310 301 72 74 53 84 64 38 26 27 26
38 23 354 333 299 340 10 6 349 318 130 180 167 178 157 151 158 153 191 48 27 153 313 304 317 214 232 201 306 349 358 312 331 328 26 130 153 62 13 3 49 25 22 19
358 24 41 27 346 311 315 355 356 338 285 209 165 168 179 172 187 164 155 42 168 259 317 292 288 330 355 314 291 218 284 241 302 339 312 355 70 81 355 319 93 22 23 21
307 302 335 17 15 326 305 310 347 340 306 224 151 203 193 176 176 180 144 170 208 223 248 257 273 318 329 296 298 347 289 288 299 356 318 57 93 58 305 264 68 27 31 32
286 296 298 316 11 108 311 322 306 334 309 289 216 211 209 180 194 187 130 162 207 204 246 269 248 273 98 272 268 283 288 294 233 234 253 243 160 159 301 105 119 73 30 33
279 268 246 283 291 262 237 300 305 331 300 282 253 231 223 204 195 168 177 358 185 242 251 249 298 240 216 307 259 195 257 260 339 254 30 106 152 110 129 134 140 136 123 89
276 277 253 245 257 274 246 254 268 320 324 302 261 253 233 223 219 206 198 204 219 258 258 317 314 263 267 244 233 255 219 198 240 293 174 197 184 171 163 159 145 128 99 356
266 267 264 257 252 256 251 240 234 217 295 286 254 261 245 233 223 219 217 218 231 239 238 268 269 268 194 274 334 258 351 156 218 244 216 193 213 205 194 181 167 165 177 207
267 271 290 257 219 231 236 229 236 226 178 253 306 295 253 243 236 231 233 226 205 209 228 231 242 287 246 215 284 239 194 197 190 220 182 195 199 195 188 190 194 189 189 201
264 258 253 204 199 211 210 246 246 218 204 147 288 267 268 233 231 230 233 222 215 228 248 256 246 259 255 266 252 250 210 220 212 199 173 183 164 174 184 188 190 191 202 238
257 227 225 232 214 209 198 213 166 254 191 175 265 256 279 205 200 214 226 225 242 229 253 237 257 220 215 259 246 237 201 201 194 169 147 148 167 182 185 186 192 212 214 241
249 225 215 232 224 217 229 228 268 201 182 212 200 205 260 189 205 209 194 221 239 240 263 253 228 190 219 252 238 217 194 186 189 185 192 179 175 166 181 194 208 221 233 259
228 226 208 214 207 214 229 243 240 226 217 251 196 189 173 173 185 204 176 187 238 231 247 228 196 206 223 230 228 207 192 185 184 175 184 174 174 177 191 204 220 224 237 269
198 210 188 232 221 205 227 234 183 202 215 224 237 174 151 166 173 197 192 210 239 242 225 173 227 252 244 243 234 216 196 187 175 164 174 176 176 187 199 208 215 232 252 271
193 201 200 198 177 170 199 212 203 195 220 205 200 189 147 174 156 177 214 206 209 248 185 215 244 257 233 229 217 206 195 188 191 194 192 189 195 193 198 207 221 235 258 279
190 196 157 154 198 215 207 207 207 209 218 178 168 179 154 156 161 157 191 217 189 242 147 225 256 251 220 199 187 186 181 181 175 183 182 185 190 193 194 200 220 248 274 287
195 201 172 182 193 221 213 199 211 215 161 168 165 143 145 145 167 152 166 205 224 141 210 230 234 202 201 179 174 170 172 174 175 173 179 182 183 185 195 214 241 264 278 286
187 187 208 200 191 227 205 213 178 196 177 158 153 130 145 150 146 142 203 210 179 230 229 236 235 208 191 176 172 166 165 175 174 175 176 178 180 188 204 225 248 262 270 280
196 195 219 209 216 208 211 195 165 165 166 149 144 104 135 164 148 187 169 208 238 222 232 222 227 196 183 175 175 174 175 174 176 176 176 178 184 196 206 224 235 249 268 287
210 219 224 147 197 187 192 186 159 165 158 156 163 146 186 203 176 169 211 214 220 242 224 248 210 188 184 180 178 181 178 176 175 174 175 180 187 194 205 214 232 255 271 286
224 193 217 216 238 203 199 193 188 171 162 201 162 195 196 113 192 218 194 208 225 252 272 247 211 189 186 180 177 175 174 173 175 176 178 183 187 188 192 202 225 236 248 272